Location: Zilina
(49.2167°N, 18.7333°E)
Time: 07:27:29
(UTC+02:00)

ISS - Pass Details

Date: 25 September 2018
Orbit: 403 x 408 km, 51.6° (Epoch: 21 October)

Event Time Altitude Azimuth Distance (km) Brightness Sun altitude
Rises 19:22:53 0° 221° (SW) 2,328 0.5 -8.3°
Reaches altitude 10° 19:25:05 10° 212° (SSW) 1,470 -0.7 -8.7°
Maximum altitude 19:28:04 32° 146° (SSE) 722 -2.9 -9.1°
Enters shadow 19:30:33 14° 86° (E) 1,282 -1.9 -9.5°
